• In Czech Republic
  • List of Countries
  • For 7 days
  • Water Temperature
  • Satellite Maps
  • Weather Map
  • Weather Widgets
  • user-avatar
    Login

    Hourly Weather Hrodna

    Today, 26 September, Wednesday

    Time Temperature Precipitation Wind Pressure Humidity
    00:00 +4°C° 0 mm 3 mps 763 mmHg 81%
    01:00 +3°C° 0 mm 3 mps 763 mmHg 83%
    02:00 +3°C° 0 mm 3 mps 763 mmHg 89%
    03:00 +3°C° 0 mm 3 mps 763 mmHg 87%
    04:00 +3°C° 0 mm 3 mps 763 mmHg 85%
    05:00 +3°C° 0 mm 3 mps 763 mmHg 84%
    06:00 +3°C° 0 mm 4 mps 763 mmHg 78%
    07:00 +4°C° 0 mm 4 mps 763 mmHg 72%
    08:00 +5°C° 0 mm 5 mps 763 mmHg 66%
    09:00 +6°C° 0 mm 5 mps 763 mmHg 63%
    10:00 +8°C° 0 mm 6 mps 763 mmHg 60%
    11:00 +10°C° 0 mm 6 mps 762 mmHg 56%
    12:00 +10°C° 0 mm 6 mps 762 mmHg 55%
    13:00 +10°C° 0 mm 7 mps 761 mmHg 54%
    14:00 +10°C° 0 mm 7 mps 760 mmHg 53%
    15:00 +9°C° 0.2 mm 7 mps 760 mmHg 58%
    16:00 +9°C° 0.2 mm 7 mps 759 mmHg 63%
    17:00 +8°C° 0.2 mm 7 mps 758 mmHg 67%
    18:00 +6°C° 0.4 mm 7 mps 758 mmHg 72%
    19:00 +6°C° 0.4 mm 8 mps 757 mmHg 77%
    20:00 +5°C° 0.4 mm 8 mps 757 mmHg 82%
    21:00 +5°C° 0.8 mm 8 mps 756 mmHg 83%
    22:00 +5°C° 0.8 mm 8 mps 755 mmHg 84%
    23:00 +6°C° 0.8 mm 8 mps 755 mmHg 85%

    Tomorrow, 27 September, Thursday

    Time Temperature Precipitation Wind Pressure Humidity
    00:00 +6°C° 0.3 mm 8 mps 754 mmHg 84%
    01:00 +7°C° 0.3 mm 8 mps 753 mmHg 84%
    02:00 +7°C° 0.3 mm 8 mps 753 mmHg 83%
    03:00 +9°C° 0.2 mm 8 mps 752 mmHg 84%
    04:00 +9°C° 0.2 mm 7 mps 752 mmHg 86%
    05:00 +10°C° 0.2 mm 7 mps 752 mmHg 87%
    06:00 +11°C° 0.2 mm 7 mps 752 mmHg 88%
    07:00 +11°C° 0.2 mm 6 mps 752 mmHg 89%
    08:00 +13°C° 0.2 mm 6 mps 752 mmHg 89%
    09:00 +14°C° 0.1 mm 6 mps 753 mmHg 83%
    10:00 +15°C° 0.1 mm 7 mps 753 mmHg 76%
    11:00 +15°C° 0.1 mm 7 mps 753 mmHg 70%
    12:00 +16°C° 0 mm 7 mps 753 mmHg 66%
    13:00 +16°C° 0 mm 7 mps 754 mmHg 62%
    14:00 +17°C° 0 mm 7 mps 754 mmHg 58%
    15:00 +16°C° 0 mm 6 mps 754 mmHg 61%
    16:00 +16°C° 0 mm 5 mps 754 mmHg 65%
    17:00 +15°C° 0 mm 5 mps 753 mmHg 68%
    18:00 +14°C° 0 mm 4 mps 753 mmHg 74%
    19:00 +13°C° 0 mm 4 mps 753 mmHg 80%
    20:00 +12°C° 0 mm 4 mps 753 mmHg 86%
    21:00 +13°C° 0 mm 4 mps 753 mmHg 87%
    22:00 +13°C° 0 mm 5 mps 752 mmHg 89%
    23:00 +13°C° 0 mm 5 mps 752 mmHg 90%

    Day after tomorrow, 28 September, Friday

    Time Temperature Precipitation Wind Pressure Humidity
    00:00 +13°C° 0 mm 6 mps 751 mmHg 90%
    01:00 +13°C° 0 mm 6 mps 751 mmHg 89%
    02:00 +14°C° 0 mm 7 mps 750 mmHg 88%
    03:00 +14°C° 0 mm 7 mps 749 mmHg 88%
    04:00 +14°C° 0 mm 7 mps 748 mmHg 88%
    05:00 +14°C° 0 mm 7 mps 748 mmHg 89%
    06:00 +14°C° 0.3 mm 7 mps 747 mmHg 87%
    07:00 +14°C° 0.3 mm 7 mps 747 mmHg 85%
    08:00 +13°C° 0.3 mm 8 mps 747 mmHg 83%
    09:00 +14°C° 0.3 mm 7 mps 748 mmHg 80%
    10:00 +13°C° 0.3 mm 6 mps 748 mmHg 77%
    11:00 +13°C° 0.3 mm 6 mps 749 mmHg 74%
    12:00 +14°C° 0 mm 6 mps 749 mmHg 67%
    13:00 +14°C° 0 mm 6 mps 749 mmHg 61%
    14:00 +15°C° 0 mm 6 mps 750 mmHg 54%
    15:00 +14°C° 0 mm 5 mps 750 mmHg 57%
    16:00 +14°C° 0 mm 5 mps 750 mmHg 59%
    17:00 +13°C° 0 mm 4 mps 751 mmHg 62%
    18:00 +12°C° 0 mm 4 mps 751 mmHg 67%
    19:00 +10°C° 0 mm 3 mps 752 mmHg 73%
    20:00 +9°C° 0 mm 3 mps 752 mmHg 78%
    21:00 +9°C° 0 mm 3 mps 752 mmHg 79%
    22:00 +8°C° 0 mm 3 mps 753 mmHg 81%
    23:00 +8°C° 0 mm 3 mps 753 mmHg 82%

    29 September, Saturday

    Time Temperature Precipitation Wind Pressure Humidity
    00:00 +7°C° 0 mm 2 mps 753 mmHg 83%
    01:00 +7°C° 0 mm 2 mps 754 mmHg 84%
    02:00 +6°C° 0 mm 2 mps 754 mmHg 84%
    03:00 +6°C° 0 mm 2 mps 754 mmHg 85%
    04:00 +5°C° 0 mm 2 mps 755 mmHg 86%
    05:00 +5°C° 0 mm 2 mps 755 mmHg 86%
    06:00 +5°C° 0 mm 2 mps 755 mmHg 83%
    07:00 +5°C° 0 mm 3 mps 756 mmHg 79%
    08:00 +7°C° 0 mm 3 mps 756 mmHg 76%
    09:00 +7°C° 0 mm 4 mps 757 mmHg 69%
    10:00 +8°C° 0 mm 4 mps 757 mmHg 63%
    11:00 +11°C° 0 mm 4 mps 758 mmHg 56%
    12:00 +11°C° 0 mm 4 mps 758 mmHg 54%
    13:00 +12°C° 0 mm 4 mps 758 mmHg 51%
    14:00 +12°C° 0 mm 4 mps 758 mmHg 49%
    15:00 +12°C° 0 mm 4 mps 758 mmHg 51%
    16:00 +11°C° 0 mm 3 mps 758 mmHg 54%
    17:00 +12°C° 0 mm 2 mps 759 mmHg 57%
    18:00 +9°C° 0 mm 2 mps 759 mmHg 61%
    19:00 +8°C° 0 mm 2 mps 759 mmHg 65%
    20:00 +6°C° 0 mm 2 mps 760 mmHg 69%
    21:00 +6°C° 0 mm 2 mps 760 mmHg 71%
    22:00 +6°C° 0 mm 2 mps 760 mmHg 72%
    23:00 +6°C° 0 mm 1 mps 761 mmHg 73%

    30 September, Sunday

    Time Temperature Precipitation Wind Pressure Humidity
    00:00 +6°C° 0 mm 1 mps 761 mmHg 74%
    01:00 +6°C° 0 mm 1 mps 761 mmHg 74%
    02:00 +5°C° 0 mm 1 mps 761 mmHg 74%
    03:00 +5°C° 0 mm 1 mps 761 mmHg 74%
    04:00 +5°C° 0 mm 1 mps 761 mmHg 74%
    05:00 +4°C° 0 mm 2 mps 760 mmHg 74%
    06:00 +4°C° 0 mm 2 mps 760 mmHg 72%
    07:00 +5°C° 0 mm 2 mps 760 mmHg 70%
    08:00 +5°C° 0 mm 3 mps 760 mmHg 68%
    09:00 +8°C° 0 mm 3 mps 760 mmHg 62%
    10:00 +10°C° 0 mm 3 mps 760 mmHg 56%
    11:00 +11°C° 0 mm 4 mps 760 mmHg 50%
    12:00 +12°C° 0 mm 4 mps 760 mmHg 48%
    13:00 +13°C° 0 mm 4 mps 759 mmHg 46%
    14:00 +13°C° 0 mm 4 mps 759 mmHg 44%
    15:00 +13°C° 0 mm 3 mps 758 mmHg 48%
    16:00 +12°C° 0 mm 3 mps 758 mmHg 51%
    17:00 +13°C° 0 mm 2 mps 757 mmHg 55%
    18:00 +10°C° 0 mm 2 mps 757 mmHg 58%
    19:00 +9°C° 0 mm 2 mps 757 mmHg 61%
    20:00 +8°C° 0 mm 2 mps 757 mmHg 64%
    21:00 +7°C° 0 mm 2 mps 757 mmHg 65%
    22:00 +7°C° 0 mm 2 mps 757 mmHg 66%
    23:00 +5°C° 0 mm 3 mps 757 mmHg 67%

    1 October, Monday

    Time Temperature Precipitation Wind Pressure Humidity
    00:00 +6°C° 0 mm 2 mps 757 mmHg 67%
    01:00 +6°C° 0 mm 2 mps 756 mmHg 68%
    02:00 +5°C° 0 mm 2 mps 756 mmHg 69%
    03:00 +5°C° 0 mm 2 mps 755 mmHg 70%
    04:00 +5°C° 0 mm 2 mps 755 mmHg 72%
    05:00 +4°C° 0 mm 2 mps 754 mmHg 73%
    06:00 +4°C° 0 mm 3 mps 754 mmHg 71%
    07:00 +5°C° 0 mm 3 mps 754 mmHg 70%
    08:00 +5°C° 0 mm 3 mps 754 mmHg 68%
    09:00 +7°C° 0 mm 4 mps 753 mmHg 64%
    10:00 +10°C° 0 mm 4 mps 753 mmHg 60%
    11:00 +12°C° 0 mm 5 mps 752 mmHg 56%
    12:00 +13°C° 0 mm 5 mps 752 mmHg 55%
    13:00 +14°C° 0 mm 5 mps 751 mmHg 55%
    14:00 +14°C° 0 mm 5 mps 751 mmHg 54%
    15:00 +14°C° 0 mm 4 mps 750 mmHg 58%
    16:00 +13°C° 0 mm 4 mps 750 mmHg 61%
    17:00 +13°C° 0 mm 3 mps 749 mmHg 64%
    18:00 +12°C° 0 mm 3 mps 749 mmHg 69%
    19:00 +11°C° 0 mm 3 mps 749 mmHg 73%
    20:00 +10°C° 0 mm 3 mps 749 mmHg 78%
    21:00 +10°C° 0 mm 3 mps 749 mmHg 79%
    22:00 +9°C° 0 mm 3 mps 749 mmHg 79%
    23:00 +9°C° 0 mm 3 mps 749 mmHg 80%
    Show more